CW1621 Weather Reports


Display with metric or nautical units.
time (UTC)temp
F
wind
direction
speed
MPH
gust
MPH
rain 1hr
in
rain 24hr
in
rain mn
in
humidity
%
barometer
mb
20260508214103 62 333 1.0 7.0 0.00 0.00 0.00 44 1018.4
20260508213102 64 287 6.0 9.0 0.00 0.00 0.00 41 1018.1
20260508212604 65 271 5.0 7.0 0.00 0.00 0.00 39 1017.8
20260508212103 66 3 5.0 8.0 0.00 0.00 0.00 42 1017.8
20260508211102 64 328 2.0 12.0 0.00 0.00 0.00 45 1018.1
20260508205602 62 286 3.0 12.0 0.00 0.00 0.00 42 1018.6
20260508205103 62 296 3.0 9.0 0.00 0.00 0.00 44 1018.5
20260508204603 62 304 3.0 10.0 0.00 0.00 0.00 44 1018.5
20260508204102 61 290 5.0 12.0 0.00 0.00 0.00 44 1018.5
20260508203602 62 282 6.0 12.0 0.00 0.00 0.00 47 1018.4
20260508203103 61 284 3.0 12.0 0.00 0.00 0.00 48 1018.4
20260508202602 61 283 3.0 16.0 0.00 0.00 0.00 50 1018.4
20260508202102 61 281 5.0 17.0 0.00 0.00 0.00 46 1018.5
20260508201603 61 293 7.0 14.0 0.00 0.00 0.00 46 1018.5
20260508201102 61 294 5.0 14.0 0.00 0.00 0.00 48 1018.3
20260508200603 61 295 11.0 16.0 0.00 0.00 0.00 48 1018.1
20260508200104 61 290 7.0 13.0 0.00 0.00 0.00 48 1018.1
20260508195602 60 292 9.0 14.0 0.00 0.00 0.00 48 1018.1
20260508195103 60 321 7.0 14.0 0.00 0.00 0.00 48 1018.0
20260508194602 59 274 14.0 18.0 0.00 0.00 0.00 44 1018.4
20260508193603 59 288 8.0 13.0 0.00 0.00 0.00 48 1018.4
20260508193102 59 275 10.0 12.0 0.00 0.00 0.00 48 1018.3
20260508192602 59 286 11.0 14.0 0.00 0.00 0.00 49 1018.3
20260508192103 59 283 9.0 14.0 0.00 0.00 0.00 52 1018.3
20260508191602 59 270 11.0 15.0 0.00 0.00 0.00 49 1018.1
20260508191103 60 290 8.0 14.0 0.00 0.00 0.00 49 1018.1
20260508190602 60 294 10.0 14.0 0.00 0.00 0.00 50 1018.3
20260508185603 60 283 10.0 14.0 0.00 0.00 0.00 48 1018.3
20260508185103 60 292 9.0 14.0 0.00 0.00 0.00 49 1018.3
20260508184603 60 278 11.0 14.0 0.00 0.00 0.00 46 1018.3
20260508183602 59 279 11.0 14.0 0.00 0.00 0.00 46 1018.5
20260508183103 59 281 10.0 14.0 0.00 0.00 0.00 47 1018.5
20260508182604 59 281 13.0 15.0 0.00 0.00 0.00 44 1018.6
20260508182102 60 280 9.0 12.0 0.00 0.00 0.00 46 1018.3
20260508181602 60 273 10.0 14.0 0.00 0.00 0.00 44 1018.3
20260508181103 60 287 9.0 13.0 0.00 0.00 0.00 44 1018.4
20260508180603 60 283 10.0 14.0 0.00 0.00 0.00 45 1018.3
20260508180103 60 290 5.0 12.0 0.00 0.00 0.00 47 1018.4
20260508175602 60 286 9.0 13.0 0.00 0.00 0.00 45 1018.3
20260508175103 61 289 8.0 13.0 0.00 0.00 0.00 43 1018.0
20260508174602 62 285 8.0 12.0 0.00 0.00 0.00 44 1018.0
20260508174102 63 291 2.0 5.0 0.00 0.00 0.00 51 1017.6
20260508173602 63 340 2.0 3.0 0.00 0.00 0.00 50 1017.5
20260508173103 64 307 2.0 5.0 0.00 0.00 0.00 50 1017.5
20260508172102 63 341 2.0 3.0 0.00 0.00 0.00 53 1017.5
20260508170603 63 349 2.0 6.0 0.00 0.00 0.00 54 1017.2
20260508165603 62 327 3.0 6.0 0.00 0.00 0.00 54 1017.4
20260508164102 61 95 3.0 7.0 0.00 0.00 0.00 50 1017.5
20260508163103 61 106 3.0 5.0 0.00 0.00 0.00 53 1017.4
20260508162603 61 106 3.0 6.0 0.00 0.00 0.00 51 1017.4
20260508162103 62 74 2.0 3.0 0.00 0.00 0.00 51 1017.4
20260508161603 61 74 3.0 6.0 0.00 0.00 0.00 52 1017.4
20260508161103 62 74 3.0 5.0 0.00 0.00 0.00 50 1016.7
20260508160603 62 71 3.0 5.0 0.00 0.00 0.00 52 1016.5
20260508155602 63 37 1.0 3.0 0.00 0.00 0.00 50 1016.2
20260508155103 63 5 1.0 3.0 0.00 0.00 0.00 54 1016.3
20260508154602 63 5 1.0 3.0 0.00 0.00 0.00 55 1016.3
20260508153602 62 12 2.0 3.0 0.00 0.00 0.00 54 1016.6
20260508153103 61 28 2.0 3.0 0.00 0.00 0.00 56 1016.6
20260508152602 61 326 2.0 3.0 0.00 0.00 0.00 55 1016.5
20260508152102 61 341 1.0 3.0 0.00 0.00 0.00 53 1016.6
20260508151103 61 0 2.0 3.0 0.00 0.00 0.00 55 1016.5
20260508150602 60 0 1.0 3.0 0.00 0.00 0.00 56 1016.2
20260508150104 59 288 1.0 3.0 0.00 0.00 0.00 60 1016.5
20260508145604 58 217 2.0 3.0 0.00 0.00 0.00 57 1016.6
20260508145103 57 217 1.0 3.0 0.00 0.00 0.00 59 1016.9
20260508144602 56 217 3.0 3.0 0.00 0.00 0.00 55 1016.9
20260508144102 55 217 2.0 3.0 0.00 0.00 0.00 60 1017.0
20260508143603 55 217 2.0 3.0 0.00 0.00 0.00 67 1017.0
20260508143103 54 217 2.0 3.0 0.00 0.00 0.00 66 1017.1
20260508142604 53 217 2.0 3.0 0.00 0.00 0.00 68 1017.2
20260508142102 53 217 3.0 3.0 0.00 0.00 0.00 66 1017.3
20260508141602 52 217 3.0 5.0 0.00 0.00 0.00 67 1017.3
20260508140602 51 217 5.0 7.0 0.00 0.00 0.00 69 1016.7
20260508135602 49 227 3.0 3.0 0.00 0.00 0.00 77 1016.9
20260508135102 48 227 2.0 3.0 0.00 0.00 0.00 78 1017.0
20260508134603 47 227 2.0 3.0 0.00 0.00 0.00 76 1017.3
20260508134102 47 227 2.0 3.0 0.00 0.00 0.00 76 1017.2
20260508133603 46 227 2.0 3.0 0.00 0.00 0.00 75 1017.2
20260508133103 46 227 3.0 5.0 0.00 0.00 0.00 75 1017.1
20260508132603 45 227 3.0 5.0 0.00 0.00 0.00 76 1017.3
20260508132102 44 227 3.0 5.0 0.00 0.00 0.00 77 1017.3
20260508131603 43 226 2.0 3.0 0.00 0.00 0.00 80 1017.6
20260508131103 43 226 3.0 3.0 0.00 0.00 0.00 80 1017.4
20260508130603 43 226 2.0 3.0 0.00 0.00 0.00 79 1017.1
20260508125602 43 226 3.0 3.0 0.00 0.00 0.00 81 1017.0
20260508124603 42 226 3.0 3.0 0.00 0.00 0.00 84 1017.1
20260508124103 42 227 5.0 6.0 0.00 0.00 0.00 84 1017.1
20260508123603 42 214 5.0 6.0 0.00 0.00 0.00 83 1016.8
20260508122602 43 213 3.0 3.0 0.00 0.00 0.00 83 1016.9
20260508122102 44 213 3.0 5.0 0.00 0.00 0.00 82 1016.9
20260508121603 44 213 4.0 6.0 0.00 0.00 0.00 82 1016.8
20260508121102 45 213 4.0 7.0 0.00 0.00 0.00 81 1016.7
20260508120603 46 201 5.0 8.0 0.00 0.00 0.00 80 1016.4
20260508115603 45 203 5.0 8.0 0.00 0.00 0.00 83 1016.6
20260508114603 45 192 6.0 8.0 0.00 0.00 0.00 82 1016.6
20260508114102 45 209 5.0 6.0 0.00 0.00 0.00 82 1016.7
20260508113602 45 210 5.0 5.0 0.00 0.00 0.00 81 1016.6
20260508113103 46 210 2.0 3.0 0.00 0.00 0.00 80 1016.5
20260508112602 46 210 3.0 3.0 0.00 0.00 0.00 80 1016.5
20260508112104 46 210 3.0 3.0 0.00 0.00 0.00 82 1016.6
20260508111603 45 210 2.0 3.0 0.00 0.00 0.00 82 1016.7
20260508111103 45 210 2.0 3.0 0.00 0.00 0.00 82 1016.6
20260508110603 45 210 4.0 5.0 0.00 0.00 0.00 80 1016.5
20260508105603 46 209 1.0 3.0 0.00 0.00 0.00 81 1016.5
20260508105103 46 209 2.0 3.0 0.00 0.00 0.00 82 1016.5
20260508104603 46 210 1.0 3.0 0.00 0.00 0.00 81 1016.4
20260508104102 46 210 3.0 3.0 0.00 0.00 0.00 81 1016.4
20260508103603 46 210 2.0 3.0 0.00 0.00 0.00 80 1016.4
20260508103103 46 209 2.0 3.0 0.00 0.00 0.00 81 1016.3
20260508102102 44 209 3.0 3.0 0.00 0.00 0.00 84 1016.6
20260508101102 45 210 2.0 3.0 0.00 0.00 0.00 83 1016.5
20260508100602 45 210 1.0 5.0 0.00 0.00 0.00 83 1016.6
20260508100103 45 210 4.0 5.0 0.00 0.00 0.00 82 1016.6
20260508095602 46 210 2.0 3.0 0.00 0.00 0.00 80 1016.6
20260508095103 45 208 1.0 3.0 0.00 0.00 0.00 81 1016.5
20260508094103 45 209 2.0 3.0 0.00 0.00 0.00 83 1016.5
20260508093602 45 209 2.0 3.0 0.00 0.00 0.00 83 1016.6
20260508093103 45 209 2.0 3.0 0.00 0.00 0.00 83 1016.6
20260508092603 45 209 2.0 3.0 0.00 0.00 0.00 83 1016.6
20260508092103 45 209 2.0 3.0 0.00 0.00 0.00 83 1016.7
20260508091602 45 209 2.0 3.0 0.00 0.00 0.00 82 1016.7
20260508091103 44 209 2.0 3.0 0.00 0.00 0.00 83 1016.8
20260508090602 45 209 3.0 3.0 0.00 0.00 0.00 83 1016.7
20260508090103 45 209 2.0 3.0 0.00 0.00 0.00 83 1016.6
20260508085603 45 209 2.0 3.0 0.00 0.00 0.00 83 1016.6
20260508085102 46 209 2.0 3.0 0.00 0.00 0.00 82 1016.6
20260508084603 46 209 2.0 3.0 0.00 0.00 0.00 82 1016.5
20260508084102 46 209 2.0 3.0 0.00 0.00 0.00 81 1016.6
20260508083602 46 207 2.0 3.0 0.00 0.00 0.00 80 1016.6
20260508083103 46 207 2.0 3.0 0.00 0.00 0.00 80 1016.6
20260508082103 46 207 2.0 6.0 0.00 0.00 0.00 80 1016.7
20260508081602 47 209 2.0 5.0 0.00 0.00 0.00 79 1016.3
20260508081102 48 209 1.0 2.0 0.00 0.00 0.00 78 1016.4
20260508080602 49 209 1.0 2.0 0.00 0.00 0.00 77 1016.4
20260508075603 48 209 2.0 3.0 0.00 0.00 0.00 79 1016.6
20260508075103 48 209 3.0 3.0 0.00 0.00 0.00 79 1016.6
20260508074602 47 209 3.0 3.0 0.00 0.00 0.00 80 1016.6
20260508074103 46 209 2.0 3.0 0.00 0.00 0.00 82 1016.9
20260508073602 46 209 2.0 3.0 0.00 0.00 0.00 83 1016.9
20260508073103 46 209 3.0 5.0 0.00 0.00 0.00 82 1017.0
20260508072603 47 210 4.0 6.0 0.00 0.00 0.00 79 1016.8
20260508072102 47 226 1.0 2.0 0.00 0.00 0.00 80 1016.6
20260508071602 46 226 1.0 3.0 0.00 0.00 0.00 82 1016.8
20260508070603 46 226 1.0 3.0 0.00 0.00 0.00 83 1016.9
20260508065103 46 229 3.0 3.0 0.00 0.00 0.00 84 1017.0
20260508064603 46 229 2.0 3.0 0.00 0.00 0.00 83 1016.9
20260508064103 46 232 2.0 3.0 0.00 0.00 0.00 82 1016.9
20260508063604 47 238 3.0 3.0 0.00 0.00 0.00 82 1016.6
20260508063102 47 238 1.0 2.0 0.00 0.00 0.00 82 1016.6
20260508062602 47 238 1.0 2.0 0.00 0.00 0.00 81 1016.7
20260508061602 47 238 1.0 3.0 0.00 0.00 0.00 82 1016.7
20260508061102 47 238 2.0 3.0 0.00 0.00 0.00 82 1016.9
20260508060602 47 238 1.0 2.0 0.00 0.00 0.00 82 1017.2
20260508055602 47 238 1.0 2.0 0.00 0.00 0.00 81 1017.2
20260508055103 48 238 1.0 2.0 0.00 0.00 0.00 81 1017.2
20260508054103 48 238 1.0 2.0 0.00 0.00 0.00 81 1017.2
20260508053102 49 238 1.0 3.0 0.00 0.00 0.00 80 1016.9
20260508052603 49 238 2.0 3.0 0.00 0.00 0.00 80 1016.9
20260508052102 49 315 2.0 3.0 0.00 0.00 0.00 79 1016.9
20260508051603 49 315 1.0 3.0 0.00 0.00 0.00 79 1017.1
20260508051102 49 315 2.0 3.0 0.00 0.00 0.00 78 1017.0
20260508050602 50 315 2.0 3.0 0.00 0.00 0.00 77 1017.0
20260508050103 50 315 2.0 2.0 0.00 0.00 0.00 77 1017.0
20260508045603 50 315 1.0 2.0 0.00 0.00 0.00 78 1016.9
20260508045103 50 315 1.0 3.0 0.00 0.00 0.00 77 1017.1
20260508044603 50 315 2.0 3.0 0.00 0.00 0.00 77 1017.1
20260508044103 50 315 1.0 1.0 0.00 0.00 0.00 76 1017.1
20260508043603 50 315 0.0 2.0 0.00 0.00 0.00 76 1017.2
20260508043103 51 315 1.0 2.0 0.00 0.00 0.00 76 1017.0
20260508042602 51 315 1.0 2.0 0.00 0.00 0.00 74 1017.0
20260508042103 52 315 1.0 3.0 0.00 0.00 0.00 74 1016.9
20260508041103 55 316 0.0 0.0 0.00 0.00 0.00 65 1016.4
20260508040603 55 316 0.0 0.0 0.00 0.00 0.00 61 1016.5
20260508035603 56 316 0.0 0.0 0.00 0.00 0.00 61 1016.4
20260508035102 56 316 0.0 0.0 0.00 0.00 0.00 61 1016.4
20260508034102 56 316 0.0 0.0 0.00 0.00 0.00 61 1016.4
20260508033603 56 316 0.0 0.0 0.00 0.00 0.00 61 1016.2
20260508033103 57 316 0.0 0.0 0.00 0.00 0.00 61 1016.0
20260508032602 57 316 0.0 0.0 0.00 0.00 0.00 61 1015.9
20260508031603 58 315 0.0 0.0 0.00 0.00 0.00 60 1016.0
20260508031103 58 315 0.0 0.0 0.00 0.00 0.00 60 1015.8
20260508030602 59 315 0.0 0.0 0.00 0.00 0.00 59 1015.6
20260508025602 59 315 0.0 2.0 0.00 0.00 0.00 58 1015.3
20260508025103 60 315 1.0 2.0 0.00 0.00 0.00 57 1015.3
20260508024603 61 314 0.0 2.0 0.00 0.00 0.00 57 1015.1
20260508024102 61 314 0.0 2.0 0.00 0.00 0.00 56 1015.1
20260508023602 62 315 1.0 3.0 0.00 0.00 0.00 55 1014.9
20260508023103 63 316 1.0 3.0 0.00 0.00 0.00 55 1014.9
20260508022603 63 315 0.0 2.0 0.00 0.00 0.00 54 1014.9
20260508022103 64 314 1.0 3.0 0.00 0.00 0.00 54 1014.6
20260508021603 64 313 1.0 3.0 0.00 0.00 0.00 54 1014.7
20260508021102 64 355 2.0 3.0 0.00 0.00 0.00 53 1015.3
20260508020602 64 356 1.0 3.0 0.00 0.00 0.00 53 1015.4
20260508015603 64 311 1.0 6.0 0.00 0.00 0.00 53 1015.5
20260508014602 64 322 2.0 6.0 0.00 0.00 0.00 51 1015.5
20260508014102 65 298 2.0 6.0 0.00 0.00 0.00 52 1015.4
20260508013602 65 319 2.0 3.0 0.00 0.00 0.00 52 1015.5
20260508013102 66 294 3.0 6.0 0.00 0.00 0.00 51 1015.3
20260508012602 66 341 2.0 6.0 0.00 0.00 0.00 50 1015.3
20260508012102 67 323 3.0 7.0 0.00 0.00 0.00 50 1015.3
20260508011603 67 333 3.0 6.0 0.00 0.00 0.00 49 1015.3
20260508011103 67 357 2.0 7.0 0.00 0.00 0.00 51 1016.1
20260508010603 67 335 2.0 7.0 0.00 0.00 0.00 50 1016.3
20260508005603 68 345 2.0 9.0 0.00 0.00 0.00 49 1016.3
20260508005103 68 322 3.0 7.0 0.00 0.00 0.00 49 1016.4
20260508004103 68 355 3.0 7.0 0.00 0.00 0.00 49 1016.3
20260508003103 68 317 3.0 7.0 0.00 0.00 0.00 51 1016.3
20260508002602 68 336 3.0 9.0 0.00 0.00 0.00 51 1016.3
20260508002103 68 302 5.0 10.0 0.00 0.00 0.00 50 1016.2
20260508001602 68 346 2.0 8.0 0.00 0.00 0.00 53 1016.2
20260508001103 68 319 3.0 7.0 0.00 0.00 0.00 52 1016.1
20260507235103 68 330 5.0 12.0 0.00 0.00 0.00 49 1016.2
20260507234103 68 17 3.0 10.0 0.00 0.00 0.00 49 1016.0
20260507233603 68 347 4.0 9.0 0.00 0.00 0.00 47 1016.1
20260507232603 68 15 5.0 15.0 0.00 0.00 0.00 49 1016.2
20260507231603 69 313 2.0 6.0 0.00 0.00 0.00 47 1016.0
20260507231102 69 349 4.0 7.0 0.00 0.00 0.00 44 1016.0
20260507230603 69 306 5.0 10.0 0.00 0.00 0.00 44 1015.8
20260507225603 68 329 5.0 8.0 0.00 0.00 0.00 43 1015.8
20260507224103 68 324 4.0 10.0 0.00 0.00 0.00 42 1016.0
20260507223602 68 331 3.0 12.0 0.00 0.00 0.00 43 1016.1
20260507223102 68 6 4.0 9.0 0.00 0.00 0.00 42 1016.2
20260507222603 68 332 4.0 12.0 0.00 0.00 0.00 43 1016.2
20260507221602 68 345 4.0 9.0 0.00 0.00 0.00 45 1016.1
20260507221103 67 319 5.0 12.0 0.00 0.00 0.00 46 1015.8
20260507220603 67 9 5.0 14.0 0.00 0.00 0.00 46 1015.8
20260507215602 66 19 6.0 14.0 0.00 0.00 0.00 49 1016.0
20260507215102 67 4 5.0 9.0 0.00 0.00 0.00 48 1016.0